7 * 24
多渠道服务支持
STARLINK-11389 是 SpaceX Starlink 卫星互联网项目中的一颗低轨卫星,属于第十一组发射批次。该卫星旨在为全球用户提供高速、低延迟的宽带互联网服务,尤其服务于网络基础设施薄弱的地区。它运行在约 550 公里的轨道高度,配备先进通信设备,支持 Ku 和 Ka 频段。Starlink 项目由数千颗卫星组成,致力于构建全球覆盖的卫星互联网网络。STARLINK-11389 的部署有助于提升网络容量与连接稳定性。
美国
(US)
| 数据来源 | 国际轨道数据 |
| 星历时间: | 2025-10-28T20:20:28+0800 21小时前 查看轨道信息 |
| 半长轴: | 6734.403km |
| 偏心率: | 0.0002058 |
| 轨道倾角: | 42.999° |
| 近地点辐角 | 295.184° |
| 升交点赤经 | 119.942° |
| 平近点角 | 64.882° |
| 近地点: | 354.882km |
| 远地点: | 357.654km |
| 周期: | 91.666分钟 |
| 每日圈数: | 15.709202 |